Location: *
(0.1100°N, 5.5000°E)
Time: 13:59:29
(UTC+00:00)

FUSE - Pass Details

Date: 07 December 2022
Orbit: 741 x 756 km, 25.0° (Epoch: 02 February)

Event Time Altitude Azimuth Distance (km) Brightness Sun altitude
Rises 18:06:20 0° 236° (WSW) 3,189 9.3 -8.5°
Reaches altitude 10° 18:08:50 10° 233° (SW) 2,265 7.9 -9.1°
Maximum altitude 18:14:08 59° 154° (SSE) 866 4.3 -10.3°
Enters shadow 18:18:35 15° 77° (ENE) 1,967 5.5 -11.3°
